Location: Gwatt
(46.7204°N, 7.6223°E)
Time: 15:24:15
(UTC+00:00)

Cosmos 2278 Rocket - Pass Details

Date: 18 September 2020
Orbit: 841 x 845 km, 71.0° (Epoch: 24 October)

Event Time Altitude Azimuth Distance (km) Brightness Sun altitude
Exits shadow 21:22:25 17° 28° (NNE) 2,005 4.3 -35.0°
Drops below altitude 10° 21:23:40 10° 28° (NNE) 2,469 4.8 -35.2°
Sets 21:26:07 0° 28° (NNE) 3,408 5.6 -35.4°
